Location: Mizzole
(45.4833°N, 11.0500°E)
Time: 16:45:48
(UTC+00:00)

YAOGAN 1 - Pass Details

Date: 21 October 2019
Orbit: 619 x 621 km, 98.0° (Epoch: 13 November)

Event Time Altitude Azimuth Distance (km) Brightness Sun altitude
Rises 17:38:13 0° 165° (SSE) 2,884 5.8 -14.3°
Reaches altitude 10° 17:40:24 10° 165° (SSE) 1,983 5.0 -14.6°
Maximum altitude 17:44:43 90° 82° (E) 627 2.5 -15.4°
Drops below altitude 10° 17:49:05 10° 347° (NNW) 1,998 5.3 -16.2°
Sets 17:51:16 0° 347° (NNW) 2,908 6.2 -16.6°
